Weather History for Gage, OK

Change the Weather History Date:

Sunday, December 8, 2013

  Actual Average Record
Temperature  
Mean Temperature 27 °F -  
Max Temperature 39 °F 48 °F 77 °F (1970)
Min Temperature 14 °F 23 °F -4 °F (2005)
Degree Days  
Heating Degree Days 38    
Moisture  
Dew Point 15 °F    
Average Humidity 77    
Maximum Humidity 88    
Minimum Humidity 47    
Precipitation  
Precipitation 0.00 in - - ()
Sea Level Pressure  
Sea Level Pressure 30.04 in    
Wind  
Wind Speed 12 mph (SSE)    
Max Wind Speed 18 mph    
Max Gust Speed 22 mph    
Visibility 10 miles    
Events      
Averages and records for this station are not official NWS values.
T = Trace of Precipitation, MM = Missing Value Source: NWS Daily Summary

Daily Weather History Graph

Daily Weather History Graph

Search for Another Location

Airport:

Trip Planner

Search our weather history database for the weather conditions in past years. The results will help you decide how hot, cold, wet, or windy it might be!

Date:

Astronomy

Dec. 08, 2013 Rise Set
Actual Time 7:38 AM CST 5:24 PM CST
Civil Twilight 7:09 AM CST 5:52 PM CST
Nautical Twilight 6:37 AM CST 6:24 PM CST
Astronomical Twilight 6:06 AM CST 6:55 PM CST
Moon 12:07 PM CST (12/8) No Moon Set
Length of Visible Light 10h 42m
Length of Day
9h 45m
Waxing Crescent, 40% of the Moon is Illuminated
Dec 8
Waxing Crescent
Dec 9
First Quarter
Dec 17
Full
Dec 25
Last Quarter
Jan 1
New

Hourly Weather History & Observations

Time (CST) Temp. Windchill Dew Point Humidity Pressure Visibility Wind Dir Wind Speed Gust Speed Precip Events Conditions
12:53 AM 15.1 °F 1.8 °F 9.0 °F 77% 30.19 in 10.0 mi SSE 11.5 mph - N/A   Overcast
1:53 AM 16.0 °F 3.6 °F 10.0 °F 77% 30.15 in 10.0 mi South 10.4 mph - N/A   Overcast
2:53 AM 16.0 °F 2.3 °F 10.0 °F 77% 30.11 in 10.0 mi South 12.7 mph 21.9 mph N/A   Overcast
3:53 AM 16.0 °F -0.4 °F 10.9 °F 81% 30.08 in 10.0 mi South 18.4 mph - N/A   Overcast
4:28 AM 15.8 °F 0.9 °F 12.2 °F 86% 29.97 in 10.0 mi South 15.0 mph - N/A   Overcast
4:53 AM 16.0 °F 1.1 °F 12.0 °F 84% 30.05 in 10.0 mi South 15.0 mph - N/A   Overcast
5:09 AM 15.8 °F 2.1 °F 12.2 °F 86% 29.97 in 10.0 mi South 12.7 mph - N/A   Overcast
5:53 AM 16.0 °F 1.7 °F 12.0 °F 84% 30.06 in 10.0 mi South 13.8 mph - N/A   Overcast
6:53 AM 16.0 °F 2.9 °F 12.9 °F 88% 30.05 in 10.0 mi SSW 11.5 mph - N/A   Overcast
7:53 AM 17.1 °F 6.6 °F 12.9 °F 84% 30.04 in 10.0 mi South 8.1 mph - N/A   Overcast
8:53 AM 18.0 °F 6.1 °F 15.1 °F 88% 30.02 in 9.0 mi South 10.4 mph - N/A   Overcast
9:15 AM 19.4 °F 7.9 °F 15.8 °F 86% 29.92 in 9.0 mi South 10.4 mph - N/A   Overcast
9:53 AM 19.0 °F 6.8 °F 16.0 °F 88% 30.01 in 8.0 mi South 11.5 mph - N/A   Overcast
10:53 AM 21.0 °F 10.6 °F 17.1 °F 85% 30.00 in 9.0 mi South 9.2 mph - N/A   Overcast
11:23 AM 23.0 °F 11.7 °F 17.6 °F 80% 29.90 in 10.0 mi South 11.5 mph - N/A   Overcast
11:53 AM 26.1 °F 15.0 °F 19.0 °F 75% 29.97 in 10.0 mi SSW 12.7 mph - N/A   Mostly Cloudy
12:03 PM 26.6 °F 15.2 °F 17.6 °F 69% 29.88 in 10.0 mi South 13.8 mph - N/A   Partly Cloudy
12:53 PM 30.9 °F 20.7 °F 19.0 °F 61% 29.93 in 10.0 mi SSE 13.8 mph 19.6 mph N/A   Clear
1:53 PM 34.0 °F 24.6 °F 19.9 °F 56% 29.90 in 10.0 mi South 13.8 mph - N/A   Clear
2:53 PM 37.9 °F 30.9 °F 21.0 °F 51% 29.88 in 10.0 mi South 10.4 mph - N/A   Clear
3:53 PM 39.9 °F 35.8 °F 21.0 °F 47% 29.90 in 10.0 mi South 5.8 mph - N/A   Clear
4:53 PM 35.1 °F 25.9 °F 19.9 °F 54% 29.96 in 10.0 mi ENE 13.8 mph - N/A   Clear
5:53 PM 26.1 °F 16.2 °F 17.1 °F 69% 30.05 in 10.0 mi NE 10.4 mph - N/A   Clear
6:53 PM 21.9 °F 11.7 °F 15.1 °F 75% 30.13 in 10.0 mi NNE 9.2 mph - N/A   Clear
7:53 PM 19.0 °F 10.0 °F 14.0 °F 81% 30.17 in 10.0 mi NNE 6.9 mph - N/A   Mostly Cloudy
8:53 PM 23.0 °F 12.4 °F 18.0 °F 81% 30.18 in 9.0 mi North 10.4 mph - N/A   Overcast
9:53 PM 21.0 °F 9.3 °F 16.0 °F 81% 30.21 in 10.0 mi North 11.5 mph - N/A   Overcast
10:35 PM 17.6 °F 7.3 °F 14.0 °F 86% 30.14 in 10.0 mi North 8.1 mph - N/A   Scattered Clouds
10:53 PM 17.1 °F 5.8 °F 12.9 °F 84% 30.24 in 10.0 mi North 9.2 mph - N/A   Clear
11:53 PM 14.0 °F 3.9 °F 10.9 °F 88% 30.24 in 9.0 mi North 6.9 mph - N/A   Partly Cloudy